Location: Aulagny
(45.1643°N, 4.3096°E)
Time: 07:55:54
(UTC+00:00)

CZ-4 R/B - Pass Details

Date: 21 October 2019
Orbit: 529 x 601 km, 97.8° (Epoch: 20 November)

Event Time Altitude Azimuth Distance (km) Brightness Sun altitude
Rises 18:18:21 0° 179° (S) 2,807 4.9 -16.6°
Reaches altitude 10° 18:20:32 10° 184° (S) 1,919 4.1 -17.0°
Maximum altitude 18:24:36 50° 260° (W) 767 2.4 -17.7°
Drops below altitude 10° 18:28:44 10° 337° (NNW) 1,953 4.4 -18.4°
Sets 18:30:59 0° 343° (NNW) 2,862 5.3 -18.8°
